This is the latest recevied weather packets stored in our database for station/object IU1FIL-23. If no packets are shown the sender has not sent any weather packets the latest 1 day(s).
| Time | Temp. | Humidity | Pressure | Rain* | Wind** | Luminosity | Snow |
|---|---|---|---|---|---|---|---|
| 1777738685 | 15.56° C | 35% | 1024.1 hPa | - | - | - | - |
| 1777738081 | 15.56° C | 35% | 1024.3 hPa | - | - | - | - |
| 1777737476 | 16.11° C | 34% | 1024.3 hPa | - | - | - | - |
| 1777736872 | 16.67° C | 34% | 1024.4 hPa | - | - | - | - |
| 1777736268 | 16.11° C | 33% | 1024.5 hPa | - | - | - | - |
| 1777735664 | 16.11° C | 34% | 1024.6 hPa | - | - | - | - |
| 1777735060 | 17.22° C | 32% | 1024.6 hPa | - | - | - | - |
| 1777734456 | 17.78° C | 31% | 1024.7 hPa | - | - | - | - |
| 1777733852 | 17.78° C | 31% | 1024.7 hPa | - | - | - | - |
| 1777733248 | 17.22° C | 32% | 1024.9 hPa | - | - | - | - |
| 1777732628 | 15.56° C | 33% | 1025 hPa | - | - | - | - |
| 1777732024 | 16.67° C | 32% | 1025.1 hPa | - | - | - | - |
| 1777731420 | 16.67° C | 32% | 1025.4 hPa | - | - | - | - |
| 1777730815 | 15.56° C | 34% | 1025.5 hPa | - | - | - | - |
| 1777730211 | 15.56° C | 33% | 1025.8 hPa | - | - | - | - |
| 1777729607 | 16.67° C | 33% | 1025.7 hPa | - | - | - | - |
| 1777729003 | 17.78° C | 31% | 1025.9 hPa | - | - | - | - |
| 1777728393 | 18.89° C | 30% | 1025.8 hPa | - | - | - | - |
| 1777727179 | 17.22° C | 31% | 1026.1 hPa | - | - | - | - |
| 1777726575 | 16.67° C | 32% | 1026.1 hPa | - | - | - | - |
| 1777725961 | 17.78° C | 31% | 1026.2 hPa | - | - | - | - |
| 1777725357 | 17.78° C | 31% | 1026.2 hPa | - | - | - | - |
| 1777724145 | 16.67° C | 33% | 1026.6 hPa | - | - | - | - |
| 1777723541 | 16.67° C | 32% | 1026.4 hPa | - | - | - | - |
| 1777722979 | 18.33° C | 31% | 1026.7 hPa | - | - | - | - |
* Rain since midnight (hover to see other rain measurements)
** Current wind speed in m/s (hover to see current wind gust speed)